User: anonymous   Login
Location: Cluny
(50.9333°N, 112.8167°W)
Time: 14:04:34
(UTC-07:00)
Language:

Cosmos 1743 Rocket - Orbit

View from above orbital plane
View from above orbital plane
View from above satellite
View from above satellite

Ground track
Ground track

The orbit data is extracted from the following two-line orbital elements,

1 16720U 86034B   14352.19166248  .00000405  00000-0  46945-4 0  6380
2 16720 082.5533 011.5879 0019566 225.7213 179.4691 14.82913175544083
Epoch (UTC): 18 December 2014 04:35:59
Eccentricity: 0.0019566
inclination: 82.5533°
perigee height: 606 km
apogee height: 634 km
right ascension of ascending node: 11.5879°
argument of perigee: 225.7213°
revolutions per day: 14.82913175
mean anomaly at epoch: 179.4691°
orbit number at epoch: 54408

The dashed part of the orbit path shows where the satellite is in the earth's shadow,  

DLR